{"data":{"norad_id":69073,"intl_designator":"2026-104A","name":"QIANFAN-127","alt_names":[],"object_type":"PAYLOAD","status":"ACTIVE","operator":null,"country":"PRC","launch_date":"2026-05-12","launch_site_code":"TAISC","launch_vehicle":null,"mission":null,"orbit_class":"UNKNOWN","rcs_meters":null,"size_class":null,"mass_kg":null,"dimensions":null,"purposes":[],"wikipedia_slug":null,"has_3d_model":false,"image_url":null,"decayed_at":null,"tle_current":{"epoch":"2026-05-25T04:21:46.763136Z","epoch_age_seconds":62493,"freshness":"FRESH","line1":"1 69073U 26104A   26145.18179124  .00000087  00000+0  32197-4 0  9999","line2":"2 69073  88.9868 344.2462 0004478 171.4080 188.7189 14.23183314  1826","mean_motion":14.23183314,"eccentricity":0.0004478,"inclination_deg":88.9868,"raan_deg":344.2462,"arg_perigee_deg":171.408,"mean_anomaly_deg":188.7189,"bstar":3.2197e-5,"rev_number":182,"period_min":101.1816247306,"perigee_km":811.38623938138,"apogee_km":817.82806104231,"semimajor_km":7192.7441502118,"source":"CELESTRAK","updated_at":"2026-05-25T13:38:09.048788Z"}}}